Back to catalog

STARLINK-32010

AliveCommunicationsVLEO
NORAD 60279·PAYLOAD·🇺🇸 United States

Launched Jul 28, 2024 from Cape Canaveral Space Force Station

Loading…

Next Passes (next 24 hours)

TLE

FreshSource: CelesTrak SupGP

Epoch: Sep 14, 2026, 13:51 UTC

1 60279C 24132B   26257.57756944 -.00014097  00000+0 -45341-3 0  2574
2 60279  53.1567 253.9610 0001315  84.9340 347.5163 15.31703588    18

Track STARLINK-32010 in real time with AllMySat

Download on the App Store